| time (UTC) | temp F | wind direction | speed MPH | gust MPH | rain 1hr in | rain 24hr in | rain mn in | humidity % | barometer mb |
| 20260507165646 | 63 | 55 | 1.0 | 6.0 | 0.00 | 0.00 | 0.00 | 45 | 1018.9 |
| 20260507165142 | 65 | 356 | 2.0 | 6.0 | 0.00 | 0.00 | 0.00 | 44 | 1018.9 |
| 20260507164638 | 65 | 352 | 0.0 | 3.0 | 0.00 | 0.00 | 0.00 | 42 | 1018.7 |
| 20260507164135 | 65 | 326 | 1.0 | 2.0 | 0.00 | 0.00 | 0.00 | 43 | 1018.8 |
| 20260507163632 | 64 | 161 | 5.0 | 7.0 | 0.00 | 0.00 | 0.00 | 44 | 1018.9 |
| 20260507163131 | 64 | 213 | 3.0 | 6.0 | 0.00 | 0.00 | 0.00 | 46 | 1018.6 |
| 20260507162626 | 63 | 257 | 5.0 | 8.0 | 0.00 | 0.00 | 0.00 | 47 | 1018.8 |
| 20260507162123 | 62 | 272 | 2.0 | 6.0 | 0.00 | 0.00 | 0.00 | 48 | 1018.8 |
| 20260507161619 | 63 | 262 | 5.0 | 7.0 | 0.00 | 0.00 | 0.00 | 48 | 1018.5 |
| 20260507161116 | 62 | 151 | 6.0 | 7.0 | 0.00 | 0.00 | 0.00 | 49 | 1018.7 |
| 20260507160612 | 60 | 217 | 1.0 | 2.0 | 0.00 | 0.00 | 0.00 | 50 | 1018.8 |
| 20260507160109 | 59 | 282 | 3.0 | 9.0 | 0.00 | 0.00 | 0.00 | 55 | 1018.7 |
| 20260507155603 | 60 | 273 | 3.0 | 9.0 | 0.00 | 0.00 | 0.00 | 54 | 1018.8 |
| 20260507155101 | 61 | 241 | 4.0 | 7.0 | 0.00 | 0.00 | 0.00 | 53 | 1018.7 |
| 20260507154558 | 59 | 342 | 1.0 | 2.0 | 0.00 | 0.00 | 0.00 | 55 | 1018.8 |
| 20260507154055 | 59 | 356 | 1.0 | 3.0 | 0.00 | 0.00 | 0.00 | 55 | 1018.8 |
| 20260507153551 | 59 | 354 | 0.0 | 1.0 | 0.00 | 0.00 | 0.00 | 54 | 1018.7 |
| 20260507153048 | 59 | 342 | 0.0 | 0.0 | 0.00 | 0.00 | 0.00 | 63 | 1018.8 |
| 20260507152544 | 57 | 342 | 0.0 | 0.0 | 0.00 | 0.00 | 0.00 | 68 | 1018.8 |
| 20260507152040 | 56 | 357 | 0.0 | 0.0 | 0.00 | 0.00 | 0.00 | 71 | 1018.7 |
| 20260507151536 | 55 | 352 | 0.0 | 0.0 | 0.00 | 0.00 | 0.00 | 79 | 1018.8 |
| 20260507151033 | 54 | 347 | 0.0 | 0.0 | 0.00 | 0.00 | 0.00 | 81 | 1018.9 |
| 20260507150530 | 53 | 333 | 0.0 | 0.0 | 0.00 | 0.00 | 0.00 | 83 | 1019.2 |
| 20260507150027 | 52 | 341 | 0.0 | 0.0 | 0.00 | 0.00 | 0.00 | 82 | 1018.9 |
| 20260507145522 | 51 | 313 | 1.0 | 1.0 | 0.00 | 0.00 | 0.00 | 83 | 1018.8 |
| 20260507145020 | 50 | 334 | 0.0 | 0.0 | 0.00 | 0.00 | 0.00 | 81 | 1018.9 |
| 20260507144516 | 50 | 344 | 0.0 | 0.0 | 0.00 | 0.00 | 0.00 | 85 | 1018.9 |
| 20260507144014 | 51 | 340 | 0.0 | 0.0 | 0.00 | 0.00 | 0.00 | 83 | 1018.9 |
| 20260507143511 | 50 | 331 | 0.0 | 0.0 | 0.00 | 0.00 | 0.00 | 83 | 1018.8 |
| 20260507143009 | 48 | 355 | 0.0 | 0.0 | 0.00 | 0.00 | 0.00 | 86 | 1018.7 |
| 20260507142504 | 46 | 326 | 1.0 | 1.0 | 0.00 | 0.00 | 0.00 | 87 | 1018.6 |
| 20260507142001 | 45 | 304 | 2.0 | 2.0 | 0.00 | 0.00 | 0.00 | 91 | 1018.6 |
| 20260507141456 | 44 | 10 | 1.0 | 2.0 | 0.00 | 0.00 | 0.00 | 92 | 1018.6 |
| 20260507140954 | 43 | 333 | 0.0 | 1.0 | 0.00 | 0.00 | 0.00 | 93 | 1018.6 |
| 20260507140450 | 42 | 8 | 0.0 | 0.0 | 0.00 | 0.00 | 0.00 | 93 | 1018.6 |
| 20260507135948 | 42 | 316 | 0.0 | 0.0 | 0.00 | 0.00 | 0.00 | 94 | 1018.5 |
| 20260507135444 | 41 | 327 | 0.0 | 2.0 | 0.00 | 0.00 | 0.00 | 94 | 1018.4 |
| 20260507134942 | 40 | 331 | 0.0 | 0.0 | 0.00 | 0.00 | 0.00 | 95 | 1018.4 |
| 20260507134438 | 40 | 309 | 1.0 | 1.0 | 0.00 | 0.00 | 0.00 | 95 | 1018.5 |
| 20260507133934 | 40 | 313 | 0.0 | 0.0 | 0.00 | 0.00 | 0.00 | 95 | 1018.5 |
| 20260507133431 | 40 | 351 | 0.0 | 0.0 | 0.00 | 0.00 | 0.00 | 96 | 1018.3 |
| 20260507132929 | 40 | 321 | 0.0 | 0.0 | 0.00 | 0.00 | 0.00 | 96 | 1018.3 |
| 20260507132425 | 39 | 332 | 0.0 | 0.0 | 0.00 | 0.00 | 0.00 | 97 | 1018.2 |
| 20260507131921 | 39 | 316 | 1.0 | 1.0 | 0.00 | 0.00 | 0.00 | 97 | 1018.3 |
| 20260507131419 | 38 | 343 | 0.0 | 1.0 | 0.00 | 0.00 | 0.00 | 97 | 1018.4 |
| 20260507130916 | 38 | 330 | 0.0 | 0.0 | 0.00 | 0.00 | 0.00 | 97 | 1018.5 |
| 20260507130413 | 38 | 330 | 0.0 | 0.0 | 0.00 | 0.00 | 0.00 | 97 | 1018.2 |
| 20260507125912 | 38 | 347 | 0.0 | 0.0 | 0.00 | 0.00 | 0.00 | 97 | 1018.4 |
| 20260507125409 | 38 | 302 | 1.0 | 2.0 | 0.00 | 0.00 | 0.00 | 97 | 1018.5 |
| 20260507124906 | 38 | 333 | 0.0 | 0.0 | 0.00 | 0.00 | 0.00 | 97 | 1018.3 |
| 20260507124402 | 38 | 316 | 0.0 | 0.0 | 0.00 | 0.00 | 0.00 | 97 | 1018.4 |
| 20260507123901 | 38 | 343 | 0.0 | 0.0 | 0.00 | 0.00 | 0.00 | 97 | 1018.4 |
| 20260507123357 | 38 | 334 | 0.0 | 0.0 | 0.00 | 0.00 | 0.00 | 97 | 1018.4 |
| 20260507122854 | 38 | 339 | 0.0 | 0.0 | 0.00 | 0.00 | 0.00 | 97 | 1018.3 |
| 20260507122349 | 38 | 331 | 0.0 | 0.0 | 0.00 | 0.00 | 0.00 | 97 | 1017.9 |
| 20260507121846 | 38 | 339 | 0.0 | 0.0 | 0.00 | 0.00 | 0.00 | 97 | 1018.3 |
| 20260507121341 | 38 | 332 | 0.0 | 0.0 | 0.00 | 0.00 | 0.00 | 97 | 1018.2 |
| 20260507120838 | 38 | 348 | 0.0 | 0.0 | 0.00 | 0.00 | 0.00 | 96 | 1018.2 |
| 20260507120334 | 38 | 350 | 0.0 | 0.0 | 0.00 | 0.00 | 0.00 | 96 | 1018.1 |
| 20260507115831 | 38 | 338 | 0.0 | 0.0 | 0.00 | 0.00 | 0.00 | 96 | 1017.9 |
| 20260507115326 | 39 | 337 | 0.0 | 0.0 | 0.00 | 0.00 | 0.00 | 96 | 1017.9 |
| 20260507114822 | 39 | 338 | 0.0 | 0.0 | 0.00 | 0.00 | 0.00 | 96 | 1018.1 |
| 20260507114320 | 39 | 339 | 0.0 | 0.0 | 0.00 | 0.00 | 0.00 | 95 | 1017.7 |
| 20260507113817 | 39 | 337 | 0.0 | 0.0 | 0.00 | 0.00 | 0.00 | 95 | 1017.8 |
| 20260507113314 | 39 | 318 | 1.0 | 1.0 | 0.00 | 0.00 | 0.00 | 95 | 1017.9 |
| 20260507112812 | 40 | 347 | 0.0 | 1.0 | 0.00 | 0.00 | 0.00 | 94 | 1017.7 |
| 20260507112308 | 40 | 318 | 0.0 | 1.0 | 0.00 | 0.00 | 0.00 | 95 | 1017.7 |
| 20260507111806 | 40 | 329 | 0.0 | 1.0 | 0.00 | 0.00 | 0.00 | 94 | 1017.8 |
| 20260507111302 | 40 | 335 | 0.0 | 0.0 | 0.00 | 0.00 | 0.00 | 94 | 1017.8 |
| 20260507110758 | 40 | 341 | 0.0 | 0.0 | 0.00 | 0.00 | 0.00 | 94 | 1017.5 |
| 20260507110255 | 41 | 353 | 0.0 | 0.0 | 0.00 | 0.00 | 0.00 | 94 | 1017.6 |
| 20260507105752 | 41 | 329 | 0.0 | 1.0 | 0.00 | 0.00 | 0.00 | 93 | 1017.5 |
| 20260507105248 | 41 | 335 | 0.0 | 0.0 | 0.00 | 0.00 | 0.00 | 93 | 1017.6 |
| 20260507104745 | 42 | 320 | 0.0 | 0.0 | 0.00 | 0.00 | 0.00 | 92 | 1017.4 |
| 20260507104242 | 42 | 319 | 0.0 | 0.0 | 0.00 | 0.00 | 0.00 | 92 | 1017.3 |
| 20260507103738 | 42 | 338 | 0.0 | 0.0 | 0.00 | 0.00 | 0.00 | 92 | 1017.2 |
| 20260507103234 | 42 | 327 | 0.0 | 1.0 | 0.00 | 0.00 | 0.00 | 91 | 1017.2 |
| 20260507102731 | 42 | 335 | 0.0 | 0.0 | 0.00 | 0.00 | 0.00 | 91 | 1017.2 |
| 20260507102227 | 42 | 337 | 0.0 | 1.0 | 0.00 | 0.00 | 0.00 | 91 | 1017.2 |
| 20260507101723 | 43 | 335 | 0.0 | 2.0 | 0.00 | 0.00 | 0.00 | 90 | 1016.8 |
| 20260507101219 | 43 | 332 | 0.0 | 1.0 | 0.00 | 0.00 | 0.00 | 90 | 1017.1 |
| 20260507100716 | 44 | 311 | 0.0 | 0.0 | 0.00 | 0.00 | 0.00 | 88 | 1016.9 |
| 20260507100215 | 43 | 341 | 0.0 | 3.0 | 0.00 | 0.00 | 0.00 | 92 | 1016.9 |
| 20260507095712 | 43 | 357 | 0.0 | 1.0 | 0.00 | 0.00 | 0.00 | 91 | 1017.1 |
| 20260507095209 | 43 | 2 | 0.0 | 3.0 | 0.00 | 0.00 | 0.00 | 91 | 1016.8 |
| 20260507094705 | 43 | 340 | 0.0 | 0.0 | 0.00 | 0.00 | 0.00 | 89 | 1016.9 |
| 20260507094202 | 44 | 311 | 1.0 | 1.0 | 0.00 | 0.00 | 0.00 | 89 | 1016.9 |
| 20260507093659 | 44 | 317 | 0.0 | 1.0 | 0.00 | 0.00 | 0.00 | 89 | 1016.9 |
| 20260507093158 | 45 | 313 | 1.0 | 2.0 | 0.00 | 0.00 | 0.00 | 87 | 1016.9 |
| 20260507092655 | 45 | 359 | 0.0 | 1.0 | 0.00 | 0.00 | 0.00 | 87 | 1016.8 |
| 20260507092151 | 45 | 328 | 0.0 | 1.0 | 0.00 | 0.00 | 0.00 | 88 | 1016.8 |
| 20260507091648 | 46 | 310 | 2.0 | 3.0 | 0.00 | 0.00 | 0.00 | 86 | 1016.9 |
| 20260507091144 | 46 | 315 | 0.0 | 1.0 | 0.00 | 0.00 | 0.00 | 86 | 1016.8 |
| 20260507090639 | 46 | 337 | 0.0 | 0.0 | 0.00 | 0.00 | 0.00 | 86 | 1016.6 |
| 20260507090137 | 47 | 302 | 2.0 | 2.0 | 0.00 | 0.00 | 0.00 | 84 | 1016.6 |
| 20260507085634 | 47 | 15 | 1.0 | 1.0 | 0.00 | 0.00 | 0.00 | 82 | 1016.7 |
| 20260507085130 | 47 | 331 | 0.0 | 0.0 | 0.00 | 0.00 | 0.00 | 84 | 1016.8 |
| 20260507084627 | 48 | 310 | 2.0 | 2.0 | 0.00 | 0.00 | 0.00 | 83 | 1016.7 |
| 20260507084124 | 48 | 339 | 0.0 | 0.0 | 0.00 | 0.00 | 0.00 | 80 | 1016.7 |
| 20260507083621 | 49 | 346 | 0.0 | 0.0 | 0.00 | 0.00 | 0.00 | 78 | 1016.9 |
| 20260507083118 | 48 | 5 | 1.0 | 2.0 | 0.00 | 0.00 | 0.00 | 80 | 1016.7 |
| 20260507082613 | 48 | 46 | 1.0 | 1.0 | 0.00 | 0.00 | 0.00 | 82 | 1016.7 |
| 20260507082110 | 47 | 330 | 0.0 | 0.0 | 0.00 | 0.00 | 0.00 | 84 | 1016.9 |
| 20260507081607 | 47 | 327 | 0.0 | 1.0 | 0.00 | 0.00 | 0.00 | 84 | 1016.7 |
| 20260507081104 | 47 | 12 | 1.0 | 1.0 | 0.00 | 0.00 | 0.00 | 82 | 1016.9 |
| 20260507080600 | 48 | 327 | 0.0 | 0.0 | 0.00 | 0.00 | 0.00 | 82 | 1016.9 |
| 20260507080056 | 49 | 306 | 1.0 | 2.0 | 0.00 | 0.00 | 0.00 | 78 | 1016.7 |
| 20260507075551 | 49 | 310 | 1.0 | 3.0 | 0.00 | 0.00 | 0.00 | 78 | 1016.6 |
| 20260507075048 | 49 | 327 | 0.0 | 0.0 | 0.00 | 0.00 | 0.00 | 80 | 1016.8 |
| 20260507074545 | 50 | 297 | 2.0 | 2.0 | 0.00 | 0.00 | 0.00 | 78 | 1016.7 |
| 20260507074043 | 50 | 336 | 0.0 | 0.0 | 0.00 | 0.00 | 0.00 | 78 | 1016.6 |
| 20260507073539 | 50 | 15 | 1.0 | 2.0 | 0.00 | 0.00 | 0.00 | 75 | 1016.5 |
| 20260507073036 | 51 | 11 | 0.0 | 1.0 | 0.00 | 0.00 | 0.00 | 74 | 1016.7 |
| 20260507072533 | 51 | 349 | 0.0 | 2.0 | 0.00 | 0.00 | 0.00 | 75 | 1016.7 |
| 20260507072030 | 51 | 299 | 1.0 | 3.0 | 0.00 | 0.00 | 0.00 | 73 | 1016.7 |
| 20260507071528 | 52 | 308 | 1.0 | 2.0 | 0.00 | 0.00 | 0.00 | 74 | 1016.8 |
| 20260507071024 | 51 | 335 | 0.0 | 0.0 | 0.00 | 0.00 | 0.00 | 77 | 1016.9 |
| 20260507070521 | 51 | 350 | 0.0 | 1.0 | 0.00 | 0.00 | 0.00 | 76 | 1016.6 |
| 20260507070018 | 51 | 334 | 0.0 | 1.0 | 0.00 | 0.00 | 0.00 | 73 | 1016.8 |
| 20260507065514 | 51 | 328 | 0.0 | 1.0 | 0.00 | 0.00 | 0.00 | 75 | 1016.6 |
| 20260507065012 | 51 | 328 | 0.0 | 1.0 | 0.00 | 0.00 | 0.00 | 75 | 1016.7 |
| 20260507064510 | 51 | 331 | 0.0 | 0.0 | 0.00 | 0.00 | 0.00 | 75 | 1016.6 |
| 20260507064008 | 51 | 327 | 0.0 | 1.0 | 0.00 | 0.00 | 0.00 | 75 | 1016.7 |
| 20260507063504 | 51 | 3 | 0.0 | 0.0 | 0.00 | 0.00 | 0.00 | 72 | 1016.6 |
| 20260507063002 | 51 | 337 | 0.0 | 0.0 | 0.00 | 0.00 | 0.00 | 72 | 1016.6 |
| 20260507062458 | 52 | 10 | 1.0 | 1.0 | 0.00 | 0.00 | 0.00 | 74 | 1016.6 |
| 20260507061956 | 52 | 328 | 0.0 | 0.0 | 0.00 | 0.00 | 0.00 | 71 | 1016.5 |
| 20260507061454 | 53 | 11 | 1.0 | 2.0 | 0.00 | 0.00 | 0.00 | 71 | 1016.5 |
| 20260507060952 | 53 | 325 | 0.0 | 0.0 | 0.00 | 0.00 | 0.00 | 71 | 1016.4 |
| 20260507060448 | 55 | 312 | 2.0 | 3.0 | 0.00 | 0.00 | 0.00 | 70 | 1016.5 |
| 20260507055945 | 53 | 314 | 1.0 | 1.0 | 0.00 | 0.00 | 0.00 | 67 | 1016.5 |
| 20260507055440 | 54 | 321 | 0.0 | 2.0 | 0.00 | 0.00 | 0.00 | 66 | 1016.6 |
| 20260507054937 | 54 | 345 | 0.0 | 0.0 | 0.00 | 0.00 | 0.00 | 66 | 1016.5 |
| 20260507054433 | 55 | 337 | 0.0 | 0.0 | 0.00 | 0.00 | 0.00 | 65 | 1016.5 |
| 20260507053931 | 55 | 322 | 0.0 | 1.0 | 0.00 | 0.00 | 0.00 | 64 | 1016.7 |
| 20260507053428 | 56 | 320 | 1.0 | 2.0 | 0.00 | 0.00 | 0.00 | 65 | 1016.5 |
| 20260507052927 | 57 | 38 | 2.0 | 3.0 | 0.00 | 0.00 | 0.00 | 57 | 1016.4 |
| 20260507052424 | 58 | 283 | 3.0 | 3.0 | 0.00 | 0.00 | 0.00 | 57 | 1016.6 |
| 20260507051920 | 55 | 173 | 3.0 | 3.0 | 0.00 | 0.00 | 0.00 | 57 | 1016.4 |
| 20260507051418 | 56 | 318 | 1.0 | 2.0 | 0.00 | 0.00 | 0.00 | 61 | 1016.5 |
| 20260507050915 | 58 | 23 | 1.0 | 3.0 | 0.00 | 0.00 | 0.00 | 57 | 1016.7 |
| 20260507050411 | 58 | 350 | 0.0 | 1.0 | 0.00 | 0.00 | 0.00 | 57 | 1016.6 |
| 20260507045908 | 62 | 286 | 1.0 | 6.0 | 0.00 | 0.00 | 0.00 | 50 | 1016.4 |
| 20260507045405 | 59 | 341 | 0.0 | 1.0 | 0.00 | 0.00 | 0.00 | 56 | 1016.7 |
| 20260507044902 | 61 | 326 | 1.0 | 5.0 | 0.00 | 0.00 | 0.00 | 51 | 1016.6 |
| 20260507044359 | 59 | 351 | 0.0 | 1.0 | 0.00 | 0.00 | 0.00 | 54 | 1016.5 |
| 20260507043855 | 57 | 187 | 4.0 | 5.0 | 0.00 | 0.00 | 0.00 | 56 | 1016.6 |
| 20260507043351 | 57 | 330 | 1.0 | 3.0 | 0.00 | 0.00 | 0.00 | 61 | 1016.5 |
| 20260507042848 | 57 | 321 | 3.0 | 3.0 | 0.00 | 0.00 | 0.00 | 58 | 1016.7 |
| 20260507042344 | 57 | 308 | 2.0 | 3.0 | 0.00 | 0.00 | 0.00 | 61 | 1016.4 |
| 20260507041840 | 59 | 311 | 1.0 | 2.0 | 0.00 | 0.00 | 0.00 | 56 | 1016.5 |
| 20260507041337 | 59 | 344 | 0.0 | 3.0 | 0.00 | 0.00 | 0.00 | 54 | 1016.2 |
| 20260507040835 | 56 | 1 | 0.0 | 1.0 | 0.00 | 0.00 | 0.00 | 59 | 1016.3 |
| 20260507040330 | 56 | 65 | 1.0 | 3.0 | 0.00 | 0.00 | 0.00 | 62 | 1016.5 |
| 20260507035826 | 56 | 354 | 0.0 | 1.0 | 0.00 | 0.00 | 0.00 | 60 | 1016.3 |
| 20260507035322 | 57 | 353 | 0.0 | 1.0 | 0.00 | 0.00 | 0.00 | 61 | 1016.3 |
| 20260507034820 | 57 | 312 | 1.0 | 2.0 | 0.00 | 0.00 | 0.00 | 62 | 1016.3 |
| 20260507034316 | 57 | 326 | 0.0 | 2.0 | 0.00 | 0.00 | 0.00 | 57 | 1016.3 |
| 20260507033815 | 57 | 350 | 0.0 | 0.0 | 0.00 | 0.00 | 0.00 | 60 | 1015.9 |
| 20260507033312 | 58 | 315 | 0.0 | 0.0 | 0.00 | 0.00 | 0.00 | 59 | 1016.2 |
| 20260507032809 | 58 | 320 | 0.0 | 1.0 | 0.00 | 0.00 | 0.00 | 60 | 1016.1 |
| 20260507032306 | 58 | 349 | 0.0 | 0.0 | 0.00 | 0.00 | 0.00 | 51 | 1016.1 |
| 20260507031802 | 59 | 332 | 0.0 | 0.0 | 0.00 | 0.00 | 0.00 | 55 | 1016.2 |
| 20260507031259 | 60 | 341 | 0.0 | 0.0 | 0.00 | 0.00 | 0.00 | 54 | 1015.7 |
| 20260507030755 | 59 | 50 | 1.0 | 2.0 | 0.00 | 0.00 | 0.00 | 54 | 1015.7 |
| 20260507030253 | 59 | 342 | 0.0 | 0.0 | 0.00 | 0.00 | 0.00 | 54 | 1015.7 |
| 20260507025750 | 60 | 340 | 0.0 | 0.0 | 0.00 | 0.00 | 0.00 | 52 | 1015.8 |
| 20260507025247 | 61 | 325 | 0.0 | 1.0 | 0.00 | 0.00 | 0.00 | 51 | 1015.7 |
| 20260507024745 | 64 | 332 | 0.0 | 2.0 | 0.00 | 0.00 | 0.00 | 50 | 1015.5 |
| 20260507024242 | 65 | 85 | 2.0 | 3.0 | 0.00 | 0.00 | 0.00 | 38 | 1015.5 |
| 20260507023737 | 64 | 332 | 0.0 | 1.0 | 0.00 | 0.00 | 0.00 | 40 | 1015.7 |
| 20260507023235 | 66 | 359 | 0.0 | 1.0 | 0.00 | 0.00 | 0.00 | 42 | 1015.7 |
| 20260507022732 | 66 | 342 | 2.0 | 3.0 | 0.00 | 0.00 | 0.00 | 37 | 1015.7 |
| 20260507022228 | 67 | 321 | 1.0 | 3.0 | 0.00 | 0.00 | 0.00 | 40 | 1015.6 |
| 20260507021724 | 66 | 22 | 0.0 | 3.0 | 0.00 | 0.00 | 0.00 | 45 | 1015.5 |
| 20260507021220 | 67 | 281 | 2.0 | 13.0 | 0.00 | 0.00 | 0.00 | 41 | 1015.6 |
| 20260507020718 | 67 | 346 | 0.0 | 1.0 | 0.00 | 0.00 | 0.00 | 43 | 1015.6 |
| 20260507020214 | 67 | 216 | 3.0 | 5.0 | 0.00 | 0.00 | 0.00 | 38 | 1015.6 |
| 20260507015712 | 67 | 319 | 0.0 | 0.0 | 0.00 | 0.00 | 0.00 | 46 | 1015.4 |
| 20260507015209 | 67 | 321 | 0.0 | 0.0 | 0.00 | 0.00 | 0.00 | 43 | 1015.4 |
| 20260507014706 | 67 | 2 | 0.0 | 0.0 | 0.00 | 0.00 | 0.00 | 41 | 1015.5 |
| 20260507014202 | 68 | 350 | 0.0 | 0.0 | 0.00 | 0.00 | 0.00 | 43 | 1015.6 |
| 20260507013659 | 68 | 308 | 1.0 | 2.0 | 0.00 | 0.00 | 0.00 | 40 | 1015.5 |
| 20260507013156 | 69 | 8 | 2.0 | 5.0 | 0.00 | 0.00 | 0.00 | 39 | 1015.4 |
| 20260507012654 | 69 | 311 | 3.0 | 8.0 | 0.00 | 0.00 | 0.00 | 36 | 1015.5 |
| 20260507012148 | 69 | 344 | 0.0 | 2.0 | 0.00 | 0.00 | 0.00 | 38 | 1015.3 |
| 20260507011647 | 70 | 330 | 1.0 | 1.0 | 0.00 | 0.00 | 0.00 | 37 | 1015.5 |
| 20260507011143 | 70 | 328 | 0.0 | 2.0 | 0.00 | 0.00 | 0.00 | 35 | 1015.5 |
| 20260507010638 | 70 | 30 | 3.0 | 5.0 | 0.00 | 0.00 | 0.00 | 35 | 1015.5 |
| 20260507010134 | 71 | 340 | 4.0 | 5.0 | 0.00 | 0.00 | 0.00 | 35 | 1015.5 |
| 20260507005631 | 71 | 342 | 0.0 | 3.0 | 0.00 | 0.00 | 0.00 | 34 | 1015.4 |
| 20260507005127 | 71 | 352 | 2.0 | 6.0 | 0.00 | 0.00 | 0.00 | 35 | 1015.5 |
| 20260507004625 | 71 | 200 | 5.0 | 7.0 | 0.00 | 0.00 | 0.00 | 34 | 1015.2 |
| 20260507004122 | 71 | 337 | 2.0 | 8.0 | 0.00 | 0.00 | 0.00 | 34 | 1015.6 |
| 20260507003618 | 71 | 76 | 4.0 | 5.0 | 0.00 | 0.00 | 0.00 | 33 | 1015.5 |
| 20260507003113 | 71 | 307 | 5.0 | 7.0 | 0.00 | 0.00 | 0.00 | 33 | 1015.6 |
| 20260507002610 | 71 | 287 | 3.0 | 5.0 | 0.00 | 0.00 | 0.00 | 33 | 1015.6 |
| 20260507002105 | 71 | 330 | 0.0 | 3.0 | 0.00 | 0.00 | 0.00 | 34 | 1015.6 |
| 20260507001602 | 71 | 27 | 5.0 | 7.0 | 0.00 | 0.00 | 0.00 | 34 | 1015.6 |
| 20260507001100 | 72 | 335 | 1.0 | 1.0 | 0.00 | 0.00 | 0.00 | 33 | 1015.4 |
| 20260507000556 | 72 | 356 | 4.0 | 10.0 | 0.00 | 0.00 | 0.00 | 32 | 1015.5 |
| 20260507000051 | 72 | 347 | 1.0 | 5.0 | 0.00 | 0.00 | 0.00 | 36 | 1015.6 |
| 20260506235549 | 72 | 312 | 5.0 | 7.0 | 0.00 | 0.00 | 0.00 | 31 | 1015.5 |
| 20260506235044 | 73 | 7 | 9.0 | 14.0 | 0.00 | 0.00 | 0.00 | 31 | 1015.6 |
| 20260506234542 | 73 | 345 | 2.0 | 7.0 | 0.00 | 0.00 | 0.00 | 32 | 1015.4 |
| 20260506234039 | 73 | 190 | 2.0 | 5.0 | 0.00 | 0.00 | 0.00 | 31 | 1015.4 |
| 20260506233536 | 73 | 347 | 1.0 | 7.0 | 0.00 | 0.00 | 0.00 | 32 | 1015.6 |
| 20260506233033 | 73 | 212 | 7.0 | 8.0 | 0.00 | 0.00 | 0.00 | 32 | 1015.3 |
| 20260506232529 | 72 | 1 | 4.0 | 10.0 | 0.00 | 0.00 | 0.00 | 33 | 1015.4 |
| 20260506232019 | 73 | 350 | 2.0 | 7.0 | 0.00 | 0.00 | 0.00 | 34 | 1015.4 |
| 20260506231516 | 72 | 351 | 0.0 | 5.0 | 0.00 | 0.00 | 0.00 | 34 | 1015.4 |
| 20260506231014 | 72 | 345 | 2.0 | 3.0 | 0.00 | 0.00 | 0.00 | 34 | 1015.3 |
| 20260506230510 | 73 | 4 | 3.0 | 7.0 | 0.00 | 0.00 | 0.00 | 35 | 1015.4 |
| 20260506230008 | 72 | 38 | 1.0 | 1.0 | 0.00 | 0.00 | 0.00 | 35 | 1015.4 |
| 20260506225504 | 72 | 6 | 3.0 | 13.0 | 0.00 | 0.00 | 0.00 | 36 | 1015.4 |
| 20260506225000 | 73 | 321 | 3.0 | 8.0 | 0.00 | 0.00 | 0.00 | 32 | 1015.5 |
| 20260506224457 | 72 | 31 | 9.0 | 15.0 | 0.00 | 0.00 | 0.00 | 33 | 1015.7 |
| 20260506223954 | 72 | 354 | 2.0 | 8.0 | 0.00 | 0.00 | 0.00 | 34 | 1015.6 |
| 20260506223450 | 71 | 31 | 1.0 | 5.0 | 0.00 | 0.00 | 0.00 | 32 | 1015.5 |
| 20260506222947 | 72 | 350 | 6.0 | 10.0 | 0.00 | 0.00 | 0.00 | 31 | 1015.6 |
| 20260506222444 | 72 | 57 | 4.0 | 9.0 | 0.00 | 0.00 | 0.00 | 32 | 1015.7 |
| 20260506221940 | 72 | 350 | 4.0 | 9.0 | 0.00 | 0.00 | 0.00 | 33 | 1015.5 |
| 20260506221438 | 72 | 351 | 6.0 | 10.0 | 0.00 | 0.00 | 0.00 | 32 | 1015.7 |
| 20260506220936 | 72 | 12 | 1.0 | 2.0 | 0.00 | 0.00 | 0.00 | 34 | 1015.7 |
| 20260506220431 | 72 | 316 | 1.0 | 5.0 | 0.00 | 0.00 | 0.00 | 34 | 1015.9 |
| 20260506215927 | 72 | 354 | 0.0 | 1.0 | 0.00 | 0.00 | 0.00 | 39 | 1016.1 |
| 20260506215424 | 72 | 27 | 3.0 | 5.0 | 0.00 | 0.00 | 0.00 | 33 | 1015.9 |
| 20260506214919 | 72 | 17 | 3.0 | 8.0 | 0.00 | 0.00 | 0.00 | 35 | 1016.3 |
| 20260506214417 | 72 | 333 | 1.0 | 3.0 | 0.00 | 0.00 | 0.00 | 33 | 1016.3 |
| 20260506213914 | 71 | 330 | 2.0 | 8.0 | 0.00 | 0.00 | 0.00 | 35 | 1016.2 |
| 20260506213412 | 71 | 21 | 4.0 | 7.0 | 0.00 | 0.00 | 0.00 | 34 | 1016.3 |
| 20260506212909 | 71 | 165 | 5.0 | 8.0 | 0.00 | 0.00 | 0.00 | 33 | 1016.3 |
| 20260506212405 | 74 | 12 | 5.0 | 13.0 | 0.00 | 0.00 | 0.00 | 33 | 1016.3 |
| 20260506211859 | 75 | 332 | 2.0 | 2.0 | 0.00 | 0.00 | 0.00 | 31 | 1016.5 |
| 20260506211356 | 74 | 343 | 1.0 | 2.0 | 0.00 | 0.00 | 0.00 | 32 | 1016.3 |
| 20260506210853 | 73 | 36 | 5.0 | 8.0 | 0.00 | 0.00 | 0.00 | 32 | 1016.5 |
| 20260506210350 | 72 | 38 | 2.0 | 2.0 | 0.00 | 0.00 | 0.00 | 33 | 1016.5 |
| 20260506205847 | 71 | 358 | 1.0 | 6.0 | 0.00 | 0.00 | 0.00 | 35 | 1016.5 |
| 20260506205343 | 73 | 44 | 5.0 | 10.0 | 0.00 | 0.00 | 0.00 | 33 | 1016.6 |
| 20260506204840 | 76 | 313 | 3.0 | 5.0 | 0.00 | 0.00 | 0.00 | 31 | 1016.8 |
| 20260506204337 | 73 | 331 | 1.0 | 7.0 | 0.00 | 0.00 | 0.00 | 32 | 1016.8 |
| 20260506203835 | 74 | 306 | 3.0 | 8.0 | 0.00 | 0.00 | 0.00 | 32 | 1016.8 |
| 20260506203332 | 72 | 291 | 3.0 | 6.0 | 0.00 | 0.00 | 0.00 | 31 | 1016.8 |
| 20260506202829 | 72 | 1 | 1.0 | 9.0 | 0.00 | 0.00 | 0.00 | 34 | 1016.6 |
| 20260506202326 | 72 | 54 | 1.0 | 6.0 | 0.00 | 0.00 | 0.00 | 31 | 1016.7 |
| 20260506201822 | 75 | 342 | 1.0 | 3.0 | 0.00 | 0.00 | 0.00 | 33 | 1017.1 |
| 20260506201320 | 73 | 345 | 5.0 | 7.0 | 0.00 | 0.00 | 0.00 | 34 | 1017.1 |
| 20260506200816 | 73 | 358 | 4.0 | 7.0 | 0.00 | 0.00 | 0.00 | 34 | 1016.7 |
| 20260506200312 | 74 | 334 | 3.0 | 5.0 | 0.00 | 0.00 | 0.00 | 30 | 1016.8 |
| 20260506195809 | 73 | 323 | 1.0 | 6.0 | 0.00 | 0.00 | 0.00 | 33 | 1017.1 |
| 20260506195306 | 73 | 355 | 1.0 | 3.0 | 0.00 | 0.00 | 0.00 | 34 | 1017.1 |
| 20260506194803 | 73 | 325 | 2.0 | 6.0 | 0.00 | 0.00 | 0.00 | 32 | 1017.1 |
| 20260506194259 | 71 | 344 | 1.0 | 3.0 | 0.00 | 0.00 | 0.00 | 35 | 1017.1 |
| 20260506193757 | 70 | 18 | 1.0 | 6.0 | 0.00 | 0.00 | 0.00 | 36 | 1017.3 |
| 20260506193254 | 69 | 325 | 2.0 | 3.0 | 0.00 | 0.00 | 0.00 | 36 | 1017.5 |
| 20260506192750 | 68 | 319 | 2.0 | 6.0 | 0.00 | 0.00 | 0.00 | 36 | 1017.7 |
| 20260506192247 | 68 | 323 | 5.0 | 6.0 | 0.00 | 0.00 | 0.00 | 36 | 1017.5 |
| 20260506191744 | 66 | 334 | 3.0 | 5.0 | 0.00 | 0.00 | 0.00 | 38 | 1017.9 |
| 20260506191240 | 66 | 350 | 2.0 | 5.0 | 0.00 | 0.00 | 0.00 | 35 | 1017.8 |
| 20260506190737 | 66 | 345 | 2.0 | 7.0 | 0.00 | 0.00 | 0.00 | 38 | 1018.1 |
| 20260506190234 | 66 | 344 | 4.0 | 6.0 | 0.00 | 0.00 | 0.00 | 37 | 1018.1 |
| 20260506185731 | 65 | 331 | 3.0 | 3.0 | 0.00 | 0.00 | 0.00 | 37 | 1018.2 |
| 20260506185227 | 63 | 323 | 2.0 | 5.0 | 0.00 | 0.00 | 0.00 | 39 | 1018.2 |
| 20260506184725 | 64 | 333 | 2.0 | 5.0 | 0.00 | 0.00 | 0.00 | 38 | 1018.6 |
| 20260506184222 | 64 | 304 | 1.0 | 2.0 | 0.00 | 0.00 | 0.00 | 39 | 1018.5 |
| 20260506183719 | 62 | 321 | 2.0 | 6.0 | 0.00 | 0.00 | 0.00 | 39 | 1018.7 |
| 20260506183214 | 62 | 325 | 3.0 | 8.0 | 0.00 | 0.00 | 0.00 | 40 | 1018.6 |
| 20260506182712 | 62 | 357 | 3.0 | 6.0 | 0.00 | 0.00 | 0.00 | 39 | 1018.6 |
| 20260506182209 | 62 | 8 | 7.0 | 8.0 | 0.00 | 0.00 | 0.00 | 39 | 1018.8 |
| 20260506181707 | 60 | 319 | 2.0 | 6.0 | 0.00 | 0.00 | 0.00 | 40 | 1018.9 |
| 20260506181204 | 59 | 347 | 0.0 | 7.0 | 0.00 | 0.00 | 0.00 | 44 | 1019.2 |
| 20260506180701 | 60 | 4 | 4.0 | 5.0 | 0.00 | 0.00 | 0.00 | 39 | 1018.9 |
| 20260506180157 | 59 | 332 | 2.0 | 5.0 | 0.00 | 0.00 | 0.00 | 41 | 1019.2 |
| 20260506175653 | 59 | 321 | 0.0 | 5.0 | 0.00 | 0.00 | 0.00 | 42 | 1019.4 |
| 20260506175151 | 58 | 352 | 4.0 | 6.0 | 0.00 | 0.00 | 0.00 | 42 | 1019.5 |
| 20260506174648 | 58 | 17 | 2.0 | 5.0 | 0.00 | 0.00 | 0.00 | 41 | 1019.4 |
| 20260506174145 | 57 | 342 | 2.0 | 6.0 | 0.00 | 0.00 | 0.00 | 43 | 1019.5 |
| 20260506173643 | 58 | 15 | 3.0 | 6.0 | 0.00 | 0.00 | 0.00 | 42 | 1019.6 |
| 20260506173140 | 55 | 332 | 3.0 | 6.0 | 0.00 | 0.00 | 0.00 | 43 | 1019.7 |
| 20260506172637 | 57 | 330 | 1.0 | 2.0 | 0.00 | 0.00 | 0.00 | 43 | 1019.7 |
| 20260506172133 | 57 | 32 | 2.0 | 6.0 | 0.00 | 0.00 | 0.00 | 43 | 1019.7 |
| 20260506171631 | 55 | 333 | 1.0 | 3.0 | 0.00 | 0.00 | 0.00 | 43 | 1020.1 |
| 20260506171128 | 56 | 313 | 2.0 | 5.0 | 0.00 | 0.00 | 0.00 | 42 | 1020.2 |
| 20260506170626 | 55 | 326 | 1.0 | 2.0 | 0.00 | 0.00 | 0.00 | 45 | 1020.4 |
| 20260506170122 | 55 | 332 | 2.0 | 6.0 | 0.00 | 0.00 | 0.00 | 43 | 1020.3 |